Location: Hermaringen
(48.5952°N, 10.2585°E)
Time: 18:11:50
(UTC+00:00)

Injun/Solrad 3 - Pass Details

Date: 25 February 2026
Orbit: 872 x 984 km, 66.8° (Epoch: 6 March)

Event Time Altitude Azimuth Distance (km) Brightness Sun altitude
Rises 19:33:20 0° 309° (NW) 3,605 12.1 -26.5°
Reaches altitude 10° 19:37:42 10° 280° (W) 2,681 11.3 -27.2°
Maximum altitude 19:39:52 12° 260° (W) 2,550 10.9 -27.5°
Drops below altitude 10° 19:42:02 10° 239° (WSW) 2,698 10.8 -27.8°
Sets 19:46:30 0° 210° (SSW) 3,658 11.1 -28.5°
